Regional Weather Roundup
Issued by NWS

Home | Current Version | Previous Version | Graphics & Text | Print | Product List | Glossary On
Versions: 1 2 3 4 5 6 7 8 9 10 11 12 13 14 15 16 17 18 19 20 21 22 23 24 25 26 27 28 29 30 31 32 33 34 35 36 37 38 39 40 41 42 43 44 45 46 47 48 49 50
562
ASUS43 KMKX 260700
RWRWI

WISCONSIN REGIONAL WEATHER ROUNDUP
NATIONAL WEATHER SERVICE MILWAUKEE/SULLIVAN WI
200 AM CDT MON JUN 26 2017

NOTE: "FAIR" INDICATES FEW OR NO CLOUDS BELOW 12,000 FEET WITH NO
SIGNIFICANT WEATHER AND/OR OBSTRUCTIONS TO VISIBILITY.

WIZ001-002-006>008-014>016-023>028-260800-
NORTHWEST WISCONSIN

CITY           SKY/WX    TMP DP  RH WIND       PRES   REMARKS
SUPERIOR ARPT  NOT AVBL
ASHLAND        CLOUDY    49  45  86 NW9       30.08S
HAYWARD        CLEAR     46  42  86 CALM      30.10S
SIREN          CLEAR     42  40  93 CALM      30.13R
CUMBERLAND     CLEAR     46  43  87 NW8       30.11S
RICE LAKE      CLEAR     48  45  88 CALM      30.12S
CHETEK         CLEAR     49  46  90 NW3       30.10S
LADYSMITH      CLEAR     47  46  93 NW8       30.09S
EAU CLAIRE     NOT AVBL
MENOMONIE      CLEAR     49  46  87 W3        30.11S
NEW RICHMOND   PTCLDY    47  42  81 W6        30.13S
OSCEOLA        CLEAR     48  48 100 CALM      30.16S
$$

WIZ003>005-009-010-017-018-260800-
NORTH CENTRAL WISCONSIN

CITY           SKY/WX    TMP DP  RH WIND       PRES   REMARKS
MANITOWISH WTR CLOUDY    46  46 100 NW9       30.02F
ARBOR VITAE    CLOUDY    49  46  90 NW10      30.02S
WOODRUFF       CLOUDY    49  46  90 NW10      30.02S
RHINELANDER    CLOUDY    47  46  97 W6        30.02F
EAGLE RIVER    CLOUDY    47  47  97 W10       30.00F
LAND O LAKES   CLOUDY    48  46  92 NW7       30.01S
PHILLIPS       CLEAR     45  45 100 W5        30.05S
TOMAHAWK       NOT AVBL
MEDFORD        CLEAR     46  45  96 W6        30.05F
MERRILL        CLEAR     48  47  97 NW3       30.05S
$$

WIZ029-030-035-036-043>047-260800-
CENTRAL WISCONSIN

CITY           SKY/WX    TMP DP  RH WIND       PRES   REMARKS
WAUSAU         NOT AVBL
MOSINEE        CLEAR     46  46 100 W7        30.05F
MARSHFIELD     NOT AVBL
STEVENS POINT  CLEAR     49  46  92 W5        30.06S
WAUPACA        CLEAR     52  50  93 W6        30.05S
WAUTOMA        NOT AVBL
WISC RAPIDS    NOT AVBL
CAMP DOUGLAS   NOT AVBL
$$

WIZ011>013-019>022-031-037>040-048>050-260800-
NORTHEAST WISCONSIN

CITY           SKY/WX    TMP DP  RH WIND       PRES   REMARKS
ANTIGO         PTCLDY    46  46  99 NW9       30.03S
SHAWANO        CLEAR     51  48  87 W3        30.02F
OCONTO         CLEAR     50  47  90 W8        30.00S
STURGEON BAY   NOT AVBL
GREEN BAY      CLEAR     51  50  96 W7        30.02S
MANITOWOC      NOT AVBL
APPLETON       CLEAR     50  50 100 W6        30.02F
CLINTONVILLE   CLEAR     50  46  87 W5        30.03F
OSHKOSH        CLEAR     52  47  83 W7        30.04S
$$

WIZ032>034-041-042-053>061-260800-
SOUTHWEST WISCONSIN

CITY           SKY/WX    TMP DP  RH WIND       PRES   REMARKS
LA CROSSE      PTCLDY    55  49  80 SE3       30.10S
SPARTA         CLEAR     44  43  99 CALM      30.11S
VIROQUA        CLEAR     51  46  83 W5        30.10F
BOSCOBEL       NOT AVBL
PRAIRIE DU CHI PTCLDY    50  46  85 CALM      30.12F
PLATTEVILLE    CLEAR     51  48  91 W7        30.12F
$$

WIZ056-057-062-063-064-067-068-260800-
SOUTH CENTRAL WISCONSIN

CITY           SKY/WX    TMP DP  RH WIND       PRES   REMARKS
REEDSBURG      CLEAR     49  49 100 CALM      30.09F
BARABOO/DELLS  CLEAR     48  47  95 CALM      30.09S
LONE ROCK      NOT AVBL
MINERAL POINT  CLEAR     52  48  87 W5        30.11F
MADISON        CLEAR     54  51  90 CALM      30.08F
MIDDLETON      PTCLDY    50  50 100 CALM      30.10F
WATERTOWN      NOT AVBL
MONROE         CLEAR     54  46  76 W12       30.10F
JANESVILLE     CLEAR     54  54 100 CALM      30.09F
$$

WIZ051-052-058>065-066-070>072-260800-
SOUTHEAST WISCONSIN

CITY           SKY/WX    TMP DP  RH WIND       PRES   REMARKS
MILWAUKEE      MOCLDY    57  53  86 W7        30.07S
WAUKESHA       CLOUDY    52  50  93 W7        30.09S
MILWAUKEE/TIMM CLOUDY    55  46  71 W8        30.07F
RACINE         CLEAR     55  50  83 W5        30.08F
KENOSHA        PTCLDY    52  49  89 W6        30.08F
FOND DU LAC    CLEAR     54  47  77 W8        30.05S
SHEBOYGAN      CLEAR     53  52  96 W7        30.03F
WEST BEND      CLEAR     54  52  94 W7        30.05S
JUNEAU         PTCLDY    52  48  87 W5        30.08S
$$

LSZ147-162-260800-
LAKE SUPERIOR

STATION/POSITION TIME  TEMP    WIND        PRES    WAVE
                       AIR SEA DIR/SP/G            HT/PER
                 (UTC) (F)     (DEG/KT/KT) (MB)    (FT/S)
W MID LAKE BUOY  0550   44 39  320/ 14/ 17 1016.8F   1
DEVILS ISLAND    0600   49     330/ 18/ 20 1018.7S
SAXON HARBOR     0640   53     330/ 14/ 17 1017.6F
$$

LMZ867-665-643>646-260800-
LAKE MICHIGAN

STATION/POSITION TIME  TEMP    WIND        PRES    WAVE
                       AIR SEA DIR/SP/G            HT/PER
                 (UTC) (F)     (DEG/KT/KT) (MB)    (FT/S)
CHAMBERS ISLAND  0640   55     290/  6/ 12 1014.6F
S GREEN BAY BUOY 0630   56     290/ 14/ 16 1015.5F
N MID LAKE BUOY  0550   57 58  290/  8/ 10 1015.0F   1/ 3
NORTHPORT PIER   0640   57     300/  7/ 11 1014.6S
KEWAUNEE LAKESHO 0624   54     290/  4/  8 1015.4
SHEBOYGAN LAKESH 0600   57     270/ 10/ 13 1016.9F
PORT WASHINGTON  0630   56     260/  4/  7 1018.3S
ATWATER BUOY     0509   58 56  270/ 12/ 14 1018.1S
MILWAUKEE LAKESH 0630   58     270/  8/ 10   N/A
S MID LAKE BUOY  0550   60 61  310/ 16/ 19 1017.8F   3/ 5
KENOSHA   LAKESH 0600   59     280/  6/ 12 1018.6
$$

TC  - TEMPERATURE IN CELSIUS
VSB - VISIBILITY IN STATUTE MILES
WCI - WIND CHILL INDEX
HX  - HEAT INDEX





USA.gov is the U.S. government's official web portal to all federal, state and local government web resources and services.